Year,Month,Day,Hour,Minute,Value (Times are PST for temperature in C)
2017,09,04,00,00,20.80
2017,09,04,00,01,20.80
2017,09,04,00,02,20.80
2017,09,04,00,03,20.80
2017,09,04,00,04,20.80
2017,09,04,00,05,20.80
2017,09,04,00,06,20.90
2017,09,04,00,07,20.90
2017,09,04,00,08,20.80
2017,09,04,00,09,20.80
2017,09,04,00,10,20.80
2017,09,04,00,11,20.80
2017,09,04,00,12,20.80
2017,09,04,00,13,20.70
2017,09,04,00,14,20.70
2017,09,04,00,15,20.70
2017,09,04,00,16,20.80
2017,09,04,00,17,20.80
2017,09,04,00,18,20.90
2017,09,04,00,19,20.90
2017,09,04,00,20,20.90
2017,09,04,00,21,20.90
2017,09,04,00,22,20.80
2017,09,04,00,23,20.80
2017,09,04,00,24,20.80
2017,09,04,00,25,20.70
2017,09,04,00,26,20.60
2017,09,04,00,27,20.50
2017,09,04,00,28,20.50
2017,09,04,00,29,20.50
2017,09,04,00,30,20.50
2017,09,04,00,31,20.40
2017,09,04,00,32,20.40
2017,09,04,00,33,20.40
2017,09,04,00,34,20.30
2017,09,04,00,35,20.40
2017,09,04,00,36,20.40
2017,09,04,00,37,20.40
2017,09,04,00,38,20.40
2017,09,04,00,39,20.30
2017,09,04,00,40,20.30
2017,09,04,00,41,20.20
2017,09,04,00,42,20.30
2017,09,04,00,43,20.30
2017,09,04,00,44,20.40
2017,09,04,00,45,20.50
2017,09,04,00,46,20.50
2017,09,04,00,47,20.60
2017,09,04,00,48,20.60
2017,09,04,00,49,20.60
2017,09,04,00,50,20.60
2017,09,04,00,51,20.50
2017,09,04,00,52,20.40
2017,09,04,00,53,20.40
2017,09,04,00,54,20.30
2017,09,04,00,55,20.30
2017,09,04,00,56,20.30
2017,09,04,00,57,20.30
2017,09,04,00,58,20.20
2017,09,04,00,59,20.20
2017,09,04,01,00,20.20
2017,09,04,01,01,20.20
2017,09,04,01,02,20.10
2017,09,04,01,03,20.10
2017,09,04,01,04,20.00
2017,09,04,01,05,20.00
2017,09,04,01,06,19.90
2017,09,04,01,07,19.90
2017,09,04,01,08,19.90
2017,09,04,01,09,19.90
2017,09,04,01,10,19.90
2017,09,04,01,11,19.90
2017,09,04,01,12,19.90
2017,09,04,01,13,19.90
2017,09,04,01,14,19.90
2017,09,04,01,15,19.90
2017,09,04,01,16,19.90
2017,09,04,01,17,20.00
2017,09,04,01,18,20.00
2017,09,04,01,19,20.00
2017,09,04,01,20,20.00
2017,09,04,01,21,20.00
2017,09,04,01,22,20.00
2017,09,04,01,23,19.90
2017,09,04,01,24,19.90
2017,09,04,01,25,19.80
2017,09,04,01,26,19.80
2017,09,04,01,27,19.80
2017,09,04,01,28,19.70
2017,09,04,01,29,19.70
2017,09,04,01,30,19.60
2017,09,04,01,31,19.50
2017,09,04,01,32,19.40
2017,09,04,01,33,19.40
2017,09,04,01,34,19.40
2017,09,04,01,35,19.40
2017,09,04,01,36,19.50
2017,09,04,01,37,19.50
2017,09,04,01,38,19.60
2017,09,04,01,39,19.60
2017,09,04,01,40,19.60
2017,09,04,01,41,19.50
2017,09,04,01,42,19.50
2017,09,04,01,43,19.50
2017,09,04,01,44,19.50
2017,09,04,01,45,19.60
2017,09,04,01,46,19.60
2017,09,04,01,47,19.60
2017,09,04,01,48,19.60
2017,09,04,01,49,19.60
2017,09,04,01,50,19.60
2017,09,04,01,51,19.60
2017,09,04,01,52,19.70
2017,09,04,01,53,19.70
2017,09,04,01,54,19.70
2017,09,04,01,55,19.70
2017,09,04,01,56,19.70
2017,09,04,01,57,19.70
2017,09,04,01,58,19.70
2017,09,04,01,59,19.70
2017,09,04,02,00,19.70
2017,09,04,02,01,19.70
2017,09,04,02,02,19.70
2017,09,04,02,03,19.70
2017,09,04,02,04,19.60
2017,09,04,02,05,19.60
2017,09,04,02,06,19.60
2017,09,04,02,07,19.60
2017,09,04,02,08,19.60
2017,09,04,02,09,19.60
2017,09,04,02,10,19.60
2017,09,04,02,11,19.50
2017,09,04,02,12,19.50
2017,09,04,02,13,19.40
2017,09,04,02,14,19.40
2017,09,04,02,15,19.30
2017,09,04,02,16,19.30
2017,09,04,02,17,19.20
2017,09,04,02,18,19.20
2017,09,04,02,19,19.20
2017,09,04,02,20,19.30
2017,09,04,02,21,19.30
2017,09,04,02,22,19.30
2017,09,04,02,23,19.20
2017,09,04,02,24,19.20
2017,09,04,02,25,19.20
2017,09,04,02,26,19.20
2017,09,04,02,27,19.20
2017,09,04,02,28,19.20
2017,09,04,02,29,19.30
2017,09,04,02,30,19.20
2017,09,04,02,31,19.30
2017,09,04,02,32,19.30
2017,09,04,02,33,19.30
2017,09,04,02,34,19.40
2017,09,04,02,35,19.50
2017,09,04,02,36,19.50
2017,09,04,02,37,19.60
2017,09,04,02,38,19.70
2017,09,04,02,39,19.70
2017,09,04,02,40,19.70
2017,09,04,02,41,19.70
2017,09,04,02,42,19.80
2017,09,04,02,43,19.80
2017,09,04,02,44,19.80
2017,09,04,02,45,19.80
2017,09,04,02,46,19.80
2017,09,04,02,47,19.80
2017,09,04,02,48,19.80
2017,09,04,02,49,19.70
2017,09,04,02,50,19.70
2017,09,04,02,51,19.60
2017,09,04,02,52,19.50
2017,09,04,02,53,19.50
2017,09,04,02,54,19.40
2017,09,04,02,55,19.30
2017,09,04,02,56,19.30
2017,09,04,02,57,19.30
2017,09,04,02,58,19.30
2017,09,04,02,59,19.20
2017,09,04,03,00,19.20
2017,09,04,03,01,19.10
2017,09,04,03,02,19.10
2017,09,04,03,03,19.10
2017,09,04,03,04,19.00
2017,09,04,03,05,19.00
2017,09,04,03,06,19.10
2017,09,04,03,07,19.10
2017,09,04,03,08,19.10
2017,09,04,03,09,19.00
2017,09,04,03,10,18.90
2017,09,04,03,11,18.90
2017,09,04,03,12,18.80
2017,09,04,03,13,18.70
2017,09,04,03,14,18.60
2017,09,04,03,15,18.50
2017,09,04,03,16,18.40
2017,09,04,03,17,18.40
2017,09,04,03,18,18.40
2017,09,04,03,19,18.40
2017,09,04,03,20,18.40
2017,09,04,03,21,18.40
2017,09,04,03,22,18.40
2017,09,04,03,23,18.40
2017,09,04,03,24,18.40
2017,09,04,03,25,18.30
2017,09,04,03,26,18.40
2017,09,04,03,27,18.40
2017,09,04,03,28,18.40
2017,09,04,03,29,18.40
2017,09,04,03,30,18.40
2017,09,04,03,31,18.30
2017,09,04,03,32,18.30
2017,09,04,03,33,18.20
2017,09,04,03,34,18.20
2017,09,04,03,35,18.20
2017,09,04,03,36,18.20
2017,09,04,03,37,18.30
2017,09,04,03,38,18.30
2017,09,04,03,39,18.40
2017,09,04,03,40,18.40
2017,09,04,03,41,18.40
2017,09,04,03,42,18.40
2017,09,04,03,43,18.30
2017,09,04,03,44,18.30
2017,09,04,03,45,18.20
2017,09,04,03,46,18.20
2017,09,04,03,47,18.20
2017,09,04,03,48,18.20
2017,09,04,03,49,18.20
2017,09,04,03,50,18.30
2017,09,04,03,51,18.30
2017,09,04,03,52,18.30
2017,09,04,03,53,18.30
2017,09,04,03,54,18.30
2017,09,04,03,55,18.30
2017,09,04,03,56,18.30
2017,09,04,03,57,18.20
2017,09,04,03,58,18.10
2017,09,04,03,59,18.10
2017,09,04,04,00,18.10
2017,09,04,04,01,18.10
2017,09,04,04,02,18.10
2017,09,04,04,03,18.20
2017,09,04,04,04,18.30
2017,09,04,04,05,18.40
2017,09,04,04,06,18.50
2017,09,04,04,07,18.50
2017,09,04,04,08,18.50
2017,09,04,04,09,18.50
2017,09,04,04,10,18.40
2017,09,04,04,11,18.40
2017,09,04,04,12,18.30
2017,09,04,04,13,18.30
2017,09,04,04,14,18.30
2017,09,04,04,15,18.30
2017,09,04,04,16,18.30
2017,09,04,04,17,18.30
2017,09,04,04,18,18.30
2017,09,04,04,19,18.40
2017,09,04,04,20,18.40
2017,09,04,04,21,18.40
2017,09,04,04,22,18.40
2017,09,04,04,23,18.40
2017,09,04,04,24,18.40
2017,09,04,04,25,18.40
2017,09,04,04,26,18.50
2017,09,04,04,27,18.60
2017,09,04,04,28,18.60
2017,09,04,04,29,18.60
2017,09,04,04,30,18.60
2017,09,04,04,31,18.60
2017,09,04,04,32,18.60
2017,09,04,04,33,18.70
2017,09,04,04,34,18.60
2017,09,04,04,35,18.60
2017,09,04,04,36,18.60
2017,09,04,04,37,18.60
2017,09,04,04,38,18.60
2017,09,04,04,39,18.60
2017,09,04,04,40,18.60
2017,09,04,04,41,18.60
2017,09,04,04,42,18.60
2017,09,04,04,43,18.50
2017,09,04,04,44,18.50
2017,09,04,04,45,18.50
2017,09,04,04,46,18.40
2017,09,04,04,47,18.40
2017,09,04,04,48,18.40
2017,09,04,04,49,18.30
2017,09,04,04,50,18.30
2017,09,04,04,51,18.30
2017,09,04,04,52,18.20
2017,09,04,04,53,18.20
2017,09,04,04,54,18.20
2017,09,04,04,55,18.30
2017,09,04,04,56,18.30
2017,09,04,04,57,18.30
2017,09,04,04,58,18.30
2017,09,04,04,59,18.20
2017,09,04,05,00,18.20
2017,09,04,05,01,18.20
2017,09,04,05,02,18.10
2017,09,04,05,03,18.10
2017,09,04,05,04,18.10
2017,09,04,05,05,18.10
2017,09,04,05,06,18.10
2017,09,04,05,07,18.10
2017,09,04,05,08,18.10
2017,09,04,05,09,18.10
2017,09,04,05,10,18.10
2017,09,04,05,11,18.00
2017,09,04,05,12,18.00
2017,09,04,05,13,18.00
2017,09,04,05,14,18.00
2017,09,04,05,15,17.90
2017,09,04,05,16,17.90
2017,09,04,05,17,17.80
2017,09,04,05,18,17.80
2017,09,04,05,19,17.70
2017,09,04,05,20,17.70
2017,09,04,05,21,17.70
2017,09,04,05,22,17.70
2017,09,04,05,23,17.70
2017,09,04,05,24,17.70
2017,09,04,05,25,17.80
2017,09,04,05,26,18.00
2017,09,04,05,27,18.10
2017,09,04,05,28,18.20
2017,09,04,05,29,18.30
2017,09,04,05,30,18.40
2017,09,04,05,31,18.60
2017,09,04,05,32,18.80
2017,09,04,05,33,18.90
2017,09,04,05,34,18.90
2017,09,04,05,35,18.90
2017,09,04,05,36,18.80
2017,09,04,05,37,18.80
2017,09,04,05,38,18.80
2017,09,04,05,39,18.80
2017,09,04,05,40,18.70
2017,09,04,05,41,18.70
2017,09,04,05,42,18.60
2017,09,04,05,43,18.60
2017,09,04,05,44,18.60
2017,09,04,05,45,18.50
2017,09,04,05,46,18.50
2017,09,04,05,47,18.40
2017,09,04,05,48,18.30
2017,09,04,05,49,18.30
2017,09,04,05,50,18.20
2017,09,04,05,51,18.10
2017,09,04,05,52,18.00
2017,09,04,05,53,18.00
2017,09,04,05,54,18.00
2017,09,04,05,55,18.00
2017,09,04,05,56,17.90
2017,09,04,05,57,17.90
2017,09,04,05,58,17.90
2017,09,04,05,59,18.00
2017,09,04,06,00,18.10
2017,09,04,06,01,18.10
2017,09,04,06,02,18.10
2017,09,04,06,03,18.10
2017,09,04,06,04,18.20
2017,09,04,06,05,18.30
2017,09,04,06,06,18.40
2017,09,04,06,07,18.50
2017,09,04,06,08,18.70
2017,09,04,06,09,18.80
2017,09,04,06,10,18.90
2017,09,04,06,11,18.90
2017,09,04,06,12,19.00
2017,09,04,06,13,19.00
2017,09,04,06,14,19.00
2017,09,04,06,15,19.10
2017,09,04,06,16,19.10
2017,09,04,06,17,19.10
2017,09,04,06,18,19.10
2017,09,04,06,19,19.00
2017,09,04,06,20,19.00
2017,09,04,06,21,18.90
2017,09,04,06,22,18.80
2017,09,04,06,23,18.80
2017,09,04,06,24,18.80
2017,09,04,06,25,18.70
2017,09,04,06,26,18.70
2017,09,04,06,27,18.60
2017,09,04,06,28,18.60
2017,09,04,06,29,18.50
2017,09,04,06,30,18.40
2017,09,04,06,31,18.30
2017,09,04,06,32,18.20
2017,09,04,06,33,18.20
2017,09,04,06,34,18.10
2017,09,04,06,35,18.10
2017,09,04,06,36,18.20
2017,09,04,06,37,18.20
2017,09,04,06,38,18.20
2017,09,04,06,39,18.20
2017,09,04,06,40,18.20
2017,09,04,06,41,18.10
2017,09,04,06,42,18.10
2017,09,04,06,43,18.10
2017,09,04,06,44,18.00
2017,09,04,06,45,18.00
2017,09,04,06,46,17.90
2017,09,04,06,47,17.90
2017,09,04,06,48,17.90
2017,09,04,06,49,17.80
2017,09,04,06,50,17.80
2017,09,04,06,51,17.80
2017,09,04,06,52,17.80
2017,09,04,06,53,17.80
2017,09,04,06,54,17.80
2017,09,04,06,55,17.80
2017,09,04,06,56,17.80
2017,09,04,06,57,17.80
2017,09,04,06,58,17.70
2017,09,04,06,59,17.70
2017,09,04,07,00,17.70
2017,09,04,07,01,17.70
2017,09,04,07,02,17.70
2017,09,04,07,03,17.70
2017,09,04,07,04,17.70
2017,09,04,07,05,17.70
2017,09,04,07,06,17.70
2017,09,04,07,07,17.80
2017,09,04,07,08,17.80
2017,09,04,07,09,17.80
2017,09,04,07,10,17.70
2017,09,04,07,11,17.70
2017,09,04,07,12,17.70
2017,09,04,07,13,17.80
2017,09,04,07,14,17.70
2017,09,04,07,15,17.70
2017,09,04,07,16,17.70
2017,09,04,07,17,17.70
2017,09,04,07,18,17.70
2017,09,04,07,19,17.70
2017,09,04,07,20,17.70
2017,09,04,07,21,17.80
2017,09,04,07,22,17.80
2017,09,04,07,23,17.90
2017,09,04,07,24,18.00
2017,09,04,07,25,18.10
2017,09,04,07,26,18.20
2017,09,04,07,27,18.20
2017,09,04,07,28,18.30
2017,09,04,07,29,18.30
2017,09,04,07,30,18.20
2017,09,04,07,31,18.20
2017,09,04,07,32,18.20
2017,09,04,07,33,18.20
2017,09,04,07,34,18.20
2017,09,04,07,35,18.20
2017,09,04,07,36,18.20
2017,09,04,07,37,18.20
2017,09,04,07,38,18.30
2017,09,04,07,39,18.30
2017,09,04,07,40,18.40
2017,09,04,07,41,18.40
2017,09,04,07,42,18.50
2017,09,04,07,43,18.60
2017,09,04,07,44,18.60
2017,09,04,07,45,18.70
2017,09,04,07,46,18.70
2017,09,04,07,47,18.80
2017,09,04,07,48,18.80
2017,09,04,07,49,18.90
2017,09,04,07,50,19.00
2017,09,04,07,51,19.00
2017,09,04,07,52,19.10
2017,09,04,07,53,19.20
2017,09,04,07,54,19.30
2017,09,04,07,55,19.30
2017,09,04,07,56,19.30
2017,09,04,07,57,19.40
2017,09,04,07,58,19.40
2017,09,04,07,59,19.50
2017,09,04,08,00,19.60
2017,09,04,08,01,19.60
2017,09,04,08,02,19.60
2017,09,04,08,03,19.70
2017,09,04,08,04,19.70
2017,09,04,08,05,19.80
2017,09,04,08,06,19.80
2017,09,04,08,07,19.90
2017,09,04,08,08,20.00
2017,09,04,08,09,20.00
2017,09,04,08,10,20.10
2017,09,04,08,11,20.10
2017,09,04,08,12,20.20
2017,09,04,08,13,20.30
2017,09,04,08,14,20.40
2017,09,04,08,15,20.50
2017,09,04,08,16,20.60
2017,09,04,08,17,20.70
2017,09,04,08,18,20.80
2017,09,04,08,19,20.90
2017,09,04,08,20,20.90
2017,09,04,08,21,20.90
2017,09,04,08,22,21.00
2017,09,04,08,23,21.00
2017,09,04,08,24,21.10
2017,09,04,08,25,21.20
2017,09,04,08,26,21.30
2017,09,04,08,27,21.40
2017,09,04,08,28,21.50
2017,09,04,08,29,21.60
2017,09,04,08,30,21.70
2017,09,04,08,31,21.90
2017,09,04,08,32,22.00
2017,09,04,08,33,22.10
2017,09,04,08,34,22.30
2017,09,04,08,35,22.50
2017,09,04,08,36,22.60
2017,09,04,08,37,22.70
2017,09,04,08,38,22.80
2017,09,04,08,39,23.00
2017,09,04,08,40,23.00
2017,09,04,08,41,23.10
2017,09,04,08,42,23.20
2017,09,04,08,43,23.40
2017,09,04,08,44,23.50
2017,09,04,08,45,23.60
2017,09,04,08,46,23.70
2017,09,04,08,47,23.90
2017,09,04,08,48,24.00
2017,09,04,08,49,24.10
2017,09,04,08,50,24.20
2017,09,04,08,51,24.30
2017,09,04,08,52,24.30
2017,09,04,08,53,24.30
2017,09,04,08,54,24.30
2017,09,04,08,55,24.40
2017,09,04,08,56,24.30
2017,09,04,08,57,24.30
2017,09,04,08,58,24.30
2017,09,04,08,59,24.40
2017,09,04,09,00,24.40
2017,09,04,09,01,24.50
2017,09,04,09,02,24.50
2017,09,04,09,03,24.60
2017,09,04,09,04,24.60
2017,09,04,09,05,24.70
2017,09,04,09,06,24.80
2017,09,04,09,07,24.80
2017,09,04,09,08,24.80
2017,09,04,09,09,24.90
2017,09,04,09,10,24.90
2017,09,04,09,11,24.90
2017,09,04,09,12,24.90
2017,09,04,09,13,24.90
2017,09,04,09,14,25.00
2017,09,04,09,15,25.00
2017,09,04,09,16,25.00
2017,09,04,09,17,25.10
2017,09,04,09,18,25.10
2017,09,04,09,19,25.10
2017,09,04,09,20,25.10
2017,09,04,09,21,25.10
2017,09,04,09,22,25.10
2017,09,04,09,23,25.10
2017,09,04,09,24,25.10
2017,09,04,09,25,25.10
2017,09,04,09,26,25.10
2017,09,04,09,27,25.10
2017,09,04,09,28,25.20
2017,09,04,09,29,25.20
2017,09,04,09,30,25.20
2017,09,04,09,31,25.30
2017,09,04,09,32,25.30
2017,09,04,09,33,25.40
2017,09,04,09,34,25.40
2017,09,04,09,35,25.40
2017,09,04,09,36,25.50
2017,09,04,09,37,25.50
2017,09,04,09,38,25.60
2017,09,04,09,39,25.60
2017,09,04,09,40,25.70
2017,09,04,09,41,25.70
2017,09,04,09,42,25.70
2017,09,04,09,43,25.70
2017,09,04,09,44,25.70
2017,09,04,09,45,25.70
2017,09,04,09,46,25.70
2017,09,04,09,47,25.70
2017,09,04,09,48,25.80
2017,09,04,09,49,25.80
2017,09,04,09,50,25.80
2017,09,04,09,51,25.80
2017,09,04,09,52,25.90
2017,09,04,09,53,25.90
2017,09,04,09,54,25.90
2017,09,04,09,55,25.90
2017,09,04,09,56,25.90
2017,09,04,09,57,26.00
2017,09,04,09,58,26.00
2017,09,04,09,59,26.10
2017,09,04,10,00,26.10
2017,09,04,10,01,26.20
2017,09,04,10,02,26.30
2017,09,04,10,03,26.30
2017,09,04,10,04,26.40
2017,09,04,10,05,26.40
2017,09,04,10,06,26.40
2017,09,04,10,07,26.30
2017,09,04,10,08,26.20
2017,09,04,10,09,26.20
2017,09,04,10,10,26.20
2017,09,04,10,11,26.20
2017,09,04,10,12,26.20
2017,09,04,10,13,26.20
2017,09,04,10,14,26.20
2017,09,04,10,15,26.20
2017,09,04,10,16,26.20
2017,09,04,10,17,26.20
2017,09,04,10,18,26.20
2017,09,04,10,19,26.30
2017,09,04,10,20,26.30
2017,09,04,10,21,26.30
2017,09,04,10,22,26.30
2017,09,04,10,23,26.30
2017,09,04,10,24,26.20
2017,09,04,10,25,26.20
2017,09,04,10,26,26.20
2017,09,04,10,27,26.20
2017,09,04,10,28,26.20
2017,09,04,10,29,26.20
2017,09,04,10,30,26.20
2017,09,04,10,31,26.10
2017,09,04,10,32,26.10
2017,09,04,10,33,26.10
2017,09,04,10,34,26.10
2017,09,04,10,35,26.10
2017,09,04,10,36,26.20
2017,09,04,10,37,26.20
2017,09,04,10,38,26.30
2017,09,04,10,39,26.30
2017,09,04,10,40,26.40
2017,09,04,10,41,26.50
2017,09,04,10,42,26.50
2017,09,04,10,43,26.60
2017,09,04,10,44,26.70
2017,09,04,10,45,26.70
2017,09,04,10,46,26.70
2017,09,04,10,47,26.80
2017,09,04,10,48,26.80
2017,09,04,10,49,26.80
2017,09,04,10,50,26.80
2017,09,04,10,51,26.80
2017,09,04,10,52,26.80
2017,09,04,10,53,26.80
2017,09,04,10,54,26.80
2017,09,04,10,55,26.70
2017,09,04,10,56,26.80
2017,09,04,10,57,26.80
2017,09,04,10,58,26.80
2017,09,04,10,59,26.80
2017,09,04,11,00,26.70
2017,09,04,11,01,26.70
2017,09,04,11,02,26.80
2017,09,04,11,03,26.70
2017,09,04,11,04,26.70
2017,09,04,11,05,26.80
2017,09,04,11,06,26.80
2017,09,04,11,07,26.80
2017,09,04,11,08,26.90
2017,09,04,11,09,26.90
2017,09,04,11,10,26.90
2017,09,04,11,11,26.90
2017,09,04,11,12,27.00
2017,09,04,11,13,26.90
2017,09,04,11,14,26.90
2017,09,04,11,15,26.80
2017,09,04,11,16,26.80
2017,09,04,11,17,26.90
2017,09,04,11,18,26.90
2017,09,04,11,19,27.00
2017,09,04,11,20,27.10
2017,09,04,11,21,27.10
2017,09,04,11,22,27.20
2017,09,04,11,23,27.10
2017,09,04,11,24,27.10
2017,09,04,11,25,27.00
2017,09,04,11,26,27.00
2017,09,04,11,27,27.00
2017,09,04,11,28,27.10
2017,09,04,11,29,27.10
2017,09,04,11,30,27.20
2017,09,04,11,31,27.20
2017,09,04,11,32,27.30
2017,09,04,11,33,27.30
2017,09,04,11,34,27.30
2017,09,04,11,35,27.40
2017,09,04,11,36,27.40
2017,09,04,11,37,27.50
2017,09,04,11,38,27.50
2017,09,04,11,39,27.60
2017,09,04,11,40,27.60
2017,09,04,11,41,27.70
2017,09,04,11,42,27.60
2017,09,04,11,43,27.60
2017,09,04,11,44,27.60
2017,09,04,11,45,27.50
2017,09,04,11,46,27.40
2017,09,04,11,47,27.30
2017,09,04,11,48,27.30
2017,09,04,11,49,27.30
2017,09,04,11,50,27.30
2017,09,04,11,51,27.30
2017,09,04,11,52,27.30
2017,09,04,11,53,27.40
2017,09,04,11,54,27.50
2017,09,04,11,55,27.50
2017,09,04,11,56,27.60
2017,09,04,11,57,27.60
2017,09,04,11,58,27.70
2017,09,04,11,59,27.80
2017,09,04,12,00,27.90
2017,09,04,12,01,28.00
2017,09,04,12,02,28.00
2017,09,04,12,03,28.00
2017,09,04,12,04,28.00
2017,09,04,12,05,27.90
2017,09,04,12,06,27.90
2017,09,04,12,07,27.80
2017,09,04,12,08,27.80
2017,09,04,12,09,27.80
2017,09,04,12,10,27.80
2017,09,04,12,11,27.90
2017,09,04,12,12,27.90
2017,09,04,12,13,28.00
2017,09,04,12,14,28.00
2017,09,04,12,15,27.90
2017,09,04,12,16,27.90
2017,09,04,12,17,28.00
2017,09,04,12,18,28.00
2017,09,04,12,19,28.10
2017,09,04,12,20,28.10
2017,09,04,12,21,28.20
2017,09,04,12,22,28.20
2017,09,04,12,23,28.30
2017,09,04,12,24,28.30
2017,09,04,12,25,28.40
2017,09,04,12,26,28.50
2017,09,04,12,27,28.50
2017,09,04,12,28,28.60
2017,09,04,12,29,28.60
2017,09,04,12,30,28.60
2017,09,04,12,31,28.70
2017,09,04,12,32,28.70
2017,09,04,12,33,28.80
2017,09,04,12,34,28.80
2017,09,04,12,35,28.90
2017,09,04,12,36,28.90
2017,09,04,12,37,29.00
2017,09,04,12,38,29.00
2017,09,04,12,39,29.10
2017,09,04,12,40,29.00
2017,09,04,12,41,29.00
2017,09,04,12,42,29.00
2017,09,04,12,43,28.90
2017,09,04,12,44,28.90
2017,09,04,12,45,28.80
2017,09,04,12,46,28.80
2017,09,04,12,47,28.80
2017,09,04,12,48,28.90
2017,09,04,12,49,29.00
2017,09,04,12,50,29.00
2017,09,04,12,51,29.10
2017,09,04,12,52,29.20
2017,09,04,12,53,29.30
2017,09,04,12,54,29.40
2017,09,04,12,55,29.40
2017,09,04,12,56,29.40
2017,09,04,12,57,29.50
2017,09,04,12,58,29.50
2017,09,04,12,59,29.50
2017,09,04,13,00,29.50
2017,09,04,13,01,29.50
2017,09,04,13,02,29.50
2017,09,04,13,03,29.50
2017,09,04,13,04,29.60
2017,09,04,13,05,29.60
2017,09,04,13,06,29.70
2017,09,04,13,07,29.80
2017,09,04,13,08,29.80
2017,09,04,13,09,29.80
2017,09,04,13,10,29.90
2017,09,04,13,11,29.90
2017,09,04,13,12,29.90
2017,09,04,13,13,29.90
2017,09,04,13,14,29.90
2017,09,04,13,15,29.90
2017,09,04,13,16,29.90
2017,09,04,13,17,29.90
2017,09,04,13,18,29.90
2017,09,04,13,19,29.90
2017,09,04,13,20,29.80
2017,09,04,13,21,29.80
2017,09,04,13,22,29.70
2017,09,04,13,23,29.60
2017,09,04,13,24,29.60
2017,09,04,13,25,29.70
2017,09,04,13,26,29.70
2017,09,04,13,27,29.80
2017,09,04,13,28,30.00
2017,09,04,13,29,30.10
2017,09,04,13,30,30.10
2017,09,04,13,31,30.20
2017,09,04,13,32,30.20
2017,09,04,13,33,30.30
2017,09,04,13,34,30.40
2017,09,04,13,35,30.50
2017,09,04,13,36,30.50
2017,09,04,13,37,30.50
2017,09,04,13,38,30.40
2017,09,04,13,39,30.40
2017,09,04,13,40,30.40
2017,09,04,13,41,30.30
2017,09,04,13,42,30.30
2017,09,04,13,43,30.20
2017,09,04,13,44,30.10
2017,09,04,13,45,30.10
2017,09,04,13,46,30.10
2017,09,04,13,47,30.20
2017,09,04,13,48,30.20
2017,09,04,13,49,30.20
2017,09,04,13,50,30.30
2017,09,04,13,51,30.30
2017,09,04,13,52,30.30
2017,09,04,13,53,30.40
2017,09,04,13,54,30.40
2017,09,04,13,55,30.40
2017,09,04,13,56,30.40
2017,09,04,13,57,30.50
2017,09,04,13,58,30.60
2017,09,04,13,59,30.60
2017,09,04,14,00,30.70
2017,09,04,14,01,30.70
2017,09,04,14,02,30.70
2017,09,04,14,03,30.70
2017,09,04,14,04,30.70
2017,09,04,14,05,30.70
2017,09,04,14,06,30.80
2017,09,04,14,07,30.90
2017,09,04,14,08,31.00
2017,09,04,14,09,31.10
2017,09,04,14,10,31.10
2017,09,04,14,11,31.20
2017,09,04,14,12,31.20
2017,09,04,14,13,31.10
2017,09,04,14,14,31.10
2017,09,04,14,15,31.10
2017,09,04,14,16,31.00
2017,09,04,14,17,31.00
2017,09,04,14,18,31.00
2017,09,04,14,19,31.00
2017,09,04,14,20,31.00
2017,09,04,14,21,31.00
2017,09,04,14,22,31.10
2017,09,04,14,23,31.10
2017,09,04,14,24,31.10
2017,09,04,14,25,31.10
2017,09,04,14,26,31.10
2017,09,04,14,27,31.10
2017,09,04,14,28,31.10
2017,09,04,14,29,31.10
2017,09,04,14,30,31.10
2017,09,04,14,31,31.10
2017,09,04,14,32,31.10
2017,09,04,14,33,31.10
2017,09,04,14,34,31.00
2017,09,04,14,35,30.90
2017,09,04,14,36,30.90
2017,09,04,14,37,31.00
2017,09,04,14,38,31.00
2017,09,04,14,39,31.00
2017,09,04,14,40,31.10
2017,09,04,14,41,31.10
2017,09,04,14,42,31.10
2017,09,04,14,43,31.10
2017,09,04,14,44,31.10
2017,09,04,14,45,31.20
2017,09,04,14,46,31.10
2017,09,04,14,47,31.20
2017,09,04,14,48,31.20
2017,09,04,14,49,31.30
2017,09,04,14,50,31.30
2017,09,04,14,51,31.40
2017,09,04,14,52,31.40
2017,09,04,14,53,31.50
2017,09,04,14,54,31.60
2017,09,04,14,55,31.60
2017,09,04,14,56,31.70
2017,09,04,14,57,31.70
2017,09,04,14,58,31.70
2017,09,04,14,59,31.70
2017,09,04,15,00,31.70
2017,09,04,15,01,31.80
2017,09,04,15,02,31.80
2017,09,04,15,03,31.90
2017,09,04,15,04,31.90
2017,09,04,15,05,31.90
2017,09,04,15,06,31.90
2017,09,04,15,07,31.90
2017,09,04,15,08,31.90
2017,09,04,15,09,31.90
2017,09,04,15,10,31.90
2017,09,04,15,11,31.90
2017,09,04,15,12,32.00
2017,09,04,15,13,32.00
2017,09,04,15,14,31.90
2017,09,04,15,15,31.90
2017,09,04,15,16,31.80
2017,09,04,15,17,31.80
2017,09,04,15,18,31.80
2017,09,04,15,19,31.80
2017,09,04,15,20,31.70
2017,09,04,15,21,31.70
2017,09,04,15,22,31.70
2017,09,04,15,23,31.70
2017,09,04,15,24,31.80
2017,09,04,15,25,31.80
2017,09,04,15,26,31.80
2017,09,04,15,27,31.80
2017,09,04,15,28,31.80
2017,09,04,15,29,31.80
2017,09,04,15,30,31.80
2017,09,04,15,31,31.80
2017,09,04,15,32,31.80
2017,09,04,15,33,31.90
2017,09,04,15,34,31.90
2017,09,04,15,35,31.90
2017,09,04,15,36,31.90
2017,09,04,15,37,31.90
2017,09,04,15,38,32.00
2017,09,04,15,39,32.00
2017,09,04,15,40,32.00
2017,09,04,15,41,32.10
2017,09,04,15,42,32.10
2017,09,04,15,43,32.10
2017,09,04,15,44,32.10
2017,09,04,15,45,32.10
2017,09,04,15,46,32.00
2017,09,04,15,47,32.00
2017,09,04,15,48,32.00
2017,09,04,15,49,32.00
2017,09,04,15,50,31.90
2017,09,04,15,51,32.00
2017,09,04,15,52,32.00
2017,09,04,15,53,31.90
2017,09,04,15,54,31.90
2017,09,04,15,55,32.00
2017,09,04,15,56,32.00
2017,09,04,15,57,32.10
2017,09,04,15,58,32.10
2017,09,04,15,59,32.20
2017,09,04,16,00,32.30
2017,09,04,16,01,32.30
2017,09,04,16,02,32.40
2017,09,04,16,03,32.40
2017,09,04,16,04,32.40
2017,09,04,16,05,32.40
2017,09,04,16,06,32.40
2017,09,04,16,07,32.40
2017,09,04,16,08,32.40
2017,09,04,16,09,32.30
2017,09,04,16,10,32.30
2017,09,04,16,11,32.30
2017,09,04,16,12,32.30
2017,09,04,16,13,32.30
2017,09,04,16,14,32.40
2017,09,04,16,15,32.40
2017,09,04,16,16,32.40
2017,09,04,16,17,32.50
2017,09,04,16,18,32.50
2017,09,04,16,19,32.50
2017,09,04,16,20,32.50
2017,09,04,16,21,32.50
2017,09,04,16,22,32.60
2017,09,04,16,23,32.60
2017,09,04,16,24,32.70
2017,09,04,16,25,32.80
2017,09,04,16,26,32.80
2017,09,04,16,27,32.80
2017,09,04,16,28,32.70
2017,09,04,16,29,32.70
2017,09,04,16,30,32.70
2017,09,04,16,31,32.70
2017,09,04,16,32,32.70
2017,09,04,16,33,32.70
2017,09,04,16,34,32.70
2017,09,04,16,35,32.80
2017,09,04,16,36,32.80
2017,09,04,16,37,32.80
2017,09,04,16,38,32.80
2017,09,04,16,39,32.80
2017,09,04,16,40,32.80
2017,09,04,16,41,32.80
2017,09,04,16,42,32.80
2017,09,04,16,43,32.80
2017,09,04,16,44,32.80
2017,09,04,16,45,32.80
2017,09,04,16,46,32.80
2017,09,04,16,47,32.80
2017,09,04,16,48,32.70
2017,09,04,16,49,32.70
2017,09,04,16,50,32.70
2017,09,04,16,51,32.70
2017,09,04,16,52,32.80
2017,09,04,16,53,32.80
2017,09,04,16,54,32.80
2017,09,04,16,55,32.80
2017,09,04,16,56,32.80
2017,09,04,16,57,32.80
2017,09,04,16,58,32.80
2017,09,04,16,59,32.80
2017,09,04,17,00,32.80
2017,09,04,17,01,32.80
2017,09,04,17,02,32.80
2017,09,04,17,03,32.80
2017,09,04,17,04,32.80
2017,09,04,17,05,32.80
2017,09,04,17,06,32.80
2017,09,04,17,07,32.80
2017,09,04,17,08,32.80
2017,09,04,17,09,32.80
2017,09,04,17,10,32.70
2017,09,04,17,11,32.70
2017,09,04,17,12,32.60
2017,09,04,17,13,32.60
2017,09,04,17,14,32.50
2017,09,04,17,15,32.50
2017,09,04,17,16,32.40
2017,09,04,17,17,32.30
2017,09,04,17,18,32.30
2017,09,04,17,19,32.30